| time (UTC) | temp F | wind direction | speed MPH | gust MPH | rain 1hr in | rain 24hr in | rain mn in | humidity % | barometer mb |
| 20260502170502 | 46 | 242 | 2.0 | 3.0 | 0.00 | 0.00 | 0.00 | 48 | 1020.1 |
| 20260502163002 | 44 | 15 | 0.0 | 0.0 | 0.00 | 0.00 | 0.00 | 48 | 1020.2 |
| 20260502162502 | 44 | 359 | 0.0 | 0.0 | 0.00 | 0.00 | 0.00 | 49 | 1020.4 |
| 20260502161502 | 45 | 345 | 2.0 | 3.0 | 0.00 | 0.00 | 0.00 | 49 | 1020.3 |
| 20260502161001 | 44 | 338 | 1.0 | 2.0 | 0.00 | 0.00 | 0.00 | 50 | 1020.4 |
| 20260502160502 | 44 | 348 | 1.0 | 2.0 | 0.00 | 0.00 | 0.00 | 50 | 1020.2 |
| 20260502152002 | 44 | 337 | 0.0 | 0.0 | 0.00 | 0.00 | 0.00 | 53 | 1020.3 |
| 20260502151001 | 43 | 322 | 1.0 | 2.0 | 0.00 | 0.00 | 0.00 | 49 | 1020.5 |
| 20260502150502 | 44 | 326 | 1.0 | 2.0 | 0.00 | 0.00 | 0.00 | 46 | 1020.4 |
| 20260502123501 | 40 | 335 | 0.0 | 0.0 | 0.00 | 0.00 | 0.00 | 68 | 1020.5 |
| 20260502123002 | 40 | 357 | 0.0 | 0.0 | 0.00 | 0.00 | 0.00 | 70 | 1020.5 |
| 20260502122501 | 39 | 357 | 0.0 | 0.0 | 0.00 | 0.00 | 0.00 | 71 | 1020.6 |
| 20260502120501 | 38 | 12 | 0.0 | 0.0 | 0.00 | 0.00 | 0.00 | 74 | 1020.6 |
| 20260502115002 | 38 | 36 | 0.0 | 0.0 | 0.00 | 0.00 | 0.00 | 76 | 1020.6 |
| 20260502114502 | 37 | 357 | 1.0 | 2.0 | 0.00 | 0.00 | 0.00 | 78 | 1020.6 |
| 20260502114001 | 36 | 5 | 0.0 | 0.0 | 0.00 | 0.00 | 0.00 | 78 | 1020.5 |
| 20260502112002 | 34 | 2 | 0.0 | 0.0 | 0.00 | 0.00 | 0.00 | 90 | 1020.3 |
| 20260502111501 | 33 | 2 | 0.0 | 0.0 | 0.00 | 0.00 | 0.00 | 92 | 1020.2 |
| 20260502110002 | 32 | 3 | 0.0 | 0.0 | 0.00 | 0.00 | 0.00 | 93 | 1020.2 |
| 20260502104001 | 32 | 3 | 0.0 | 0.0 | 0.00 | 0.00 | 0.00 | 93 | 1020.3 |
| 20260502103502 | 32 | 3 | 0.0 | 0.0 | 0.00 | 0.00 | 0.00 | 93 | 1020.1 |
| 20260502103001 | 32 | 3 | 0.0 | 0.0 | 0.00 | 0.00 | 0.00 | 93 | 1020.0 |
| 20260502102502 | 32 | 3 | 0.0 | 0.0 | 0.00 | 0.00 | 0.00 | 93 | 1020.1 |
| 20260502102002 | 32 | 3 | 0.0 | 0.0 | 0.00 | 0.00 | 0.00 | 93 | 1020.0 |
| 20260502101502 | 32 | 3 | 0.0 | 0.0 | 0.00 | 0.00 | 0.00 | 93 | 1020.0 |
| 20260502101002 | 32 | 3 | 0.0 | 0.0 | 0.00 | 0.00 | 0.00 | 93 | 1019.9 |
| 20260502091001 | 33 | 3 | 0.0 | 0.0 | 0.00 | 0.00 | 0.00 | 91 | 1019.6 |
| 20260502090502 | 33 | 3 | 0.0 | 0.0 | 0.00 | 0.00 | 0.00 | 90 | 1019.8 |
| 20260502071002 | 36 | 47 | 0.0 | 0.0 | 0.00 | 0.00 | 0.00 | 82 | 1019.3 |
| 20260502070502 | 36 | 47 | 0.0 | 0.0 | 0.00 | 0.00 | 0.00 | 82 | 1019.3 |
| 20260502065502 | 37 | 47 | 0.0 | 0.0 | 0.00 | 0.00 | 0.00 | 82 | 1019.5 |
| 20260502065001 | 37 | 47 | 0.0 | 0.0 | 0.00 | 0.00 | 0.00 | 82 | 1019.5 |
| 20260502062502 | 37 | 48 | 0.0 | 0.0 | 0.00 | 0.00 | 0.00 | 82 | 1019.6 |
| 20260502061502 | 37 | 53 | 0.0 | 0.0 | 0.00 | 0.00 | 0.00 | 82 | 1019.7 |
| 20260502061002 | 37 | 53 | 0.0 | 0.0 | 0.00 | 0.00 | 0.00 | 81 | 1019.8 |
| 20260502060501 | 37 | 51 | 0.0 | 0.0 | 0.00 | 0.00 | 0.00 | 82 | 1019.7 |
| 20260502060002 | 37 | 80 | 2.0 | 2.0 | 0.00 | 0.00 | 0.00 | 81 | 1019.8 |
| 20260502055501 | 37 | 44 | 0.0 | 0.0 | 0.00 | 0.00 | 0.00 | 82 | 1019.8 |
| 20260502054002 | 37 | 43 | 0.0 | 0.0 | 0.00 | 0.00 | 0.00 | 82 | 1020.0 |
| 20260502053502 | 37 | 85 | 3.0 | 3.0 | 0.00 | 0.00 | 0.00 | 82 | 1019.9 |
| 20260502052502 | 37 | 79 | 3.0 | 3.0 | 0.00 | 0.00 | 0.00 | 82 | 1019.8 |
| 20260502052001 | 37 | 54 | 1.0 | 2.0 | 0.00 | 0.00 | 0.00 | 81 | 1019.9 |
| 20260502045002 | 37 | 42 | 1.0 | 2.0 | 0.00 | 0.00 | 0.00 | 82 | 1019.6 |
| 20260502044502 | 37 | 80 | 1.0 | 2.0 | 0.00 | 0.00 | 0.00 | 82 | 1019.7 |
| 20260502044002 | 37 | 34 | 1.0 | 2.0 | 0.00 | 0.00 | 0.00 | 82 | 1019.6 |
| 20260502043501 | 38 | 75 | 4.0 | 4.0 | 0.00 | 0.00 | 0.00 | 81 | 1019.6 |
| 20260502043002 | 38 | 11 | 1.0 | 2.0 | 0.00 | 0.00 | 0.00 | 81 | 1019.6 |
| 20260502042501 | 38 | 48 | 1.0 | 2.0 | 0.00 | 0.00 | 0.00 | 81 | 1019.4 |
| 20260502042002 | 39 | 53 | 2.0 | 4.0 | 0.00 | 0.00 | 0.00 | 80 | 1019.5 |
| 20260502041001 | 39 | 75 | 2.0 | 3.0 | 0.00 | 0.00 | 0.00 | 79 | 1019.3 |
| 20260502040502 | 39 | 43 | 0.0 | 0.0 | 0.00 | 0.00 | 0.00 | 79 | 1019.3 |
| 20260502040001 | 39 | 44 | 0.0 | 0.0 | 0.00 | 0.00 | 0.00 | 78 | 1019.4 |
| 20260502035001 | 40 | 85 | 3.0 | 3.0 | 0.00 | 0.00 | 0.00 | 76 | 1019.3 |
| 20260502034502 | 40 | 38 | 0.0 | 0.0 | 0.00 | 0.00 | 0.00 | 75 | 1019.2 |
| 20260502033501 | 40 | 30 | 0.0 | 0.0 | 0.00 | 0.00 | 0.00 | 73 | 1019.4 |
| 20260502033002 | 40 | 37 | 0.0 | 0.0 | 0.00 | 0.00 | 0.00 | 77 | 1019.0 |
| 20260502032501 | 40 | 36 | 0.0 | 0.0 | 0.00 | 0.00 | 0.00 | 76 | 1019.0 |
| 20260502032002 | 40 | 37 | 0.0 | 0.0 | 0.00 | 0.00 | 0.00 | 74 | 1018.9 |
| 20260502031502 | 40 | 36 | 0.0 | 0.0 | 0.00 | 0.00 | 0.00 | 74 | 1018.9 |
| 20260502031002 | 40 | 38 | 0.0 | 0.0 | 0.00 | 0.00 | 0.00 | 72 | 1019.0 |
| 20260502030502 | 40 | 17 | 0.0 | 0.0 | 0.00 | 0.00 | 0.00 | 66 | 1018.8 |
| 20260502025502 | 41 | 9 | 0.0 | 0.0 | 0.00 | 0.00 | 0.00 | 66 | 1018.8 |
| 20260502025001 | 41 | 9 | 0.0 | 0.0 | 0.00 | 0.00 | 0.00 | 66 | 1018.9 |
| 20260502024502 | 41 | 9 | 0.0 | 0.0 | 0.00 | 0.00 | 0.00 | 65 | 1018.9 |
| 20260502023002 | 41 | 358 | 0.0 | 0.0 | 0.00 | 0.00 | 0.00 | 65 | 1018.8 |
| 20260502022502 | 41 | 2 | 0.0 | 0.0 | 0.00 | 0.00 | 0.00 | 64 | 1018.9 |
| 20260502022002 | 41 | 348 | 0.0 | 0.0 | 0.00 | 0.00 | 0.00 | 65 | 1018.8 |
| 20260502021501 | 41 | 10 | 1.0 | 2.0 | 0.00 | 0.00 | 0.00 | 64 | 1019.0 |
| 20260502021002 | 41 | 357 | 0.0 | 0.0 | 0.00 | 0.00 | 0.00 | 69 | 1018.8 |
| 20260502015502 | 41 | 357 | 0.0 | 0.0 | 0.00 | 0.00 | 0.00 | 69 | 1018.7 |
| 20260502013502 | 41 | 356 | 0.0 | 0.0 | 0.00 | 0.00 | 0.00 | 68 | 1018.5 |
| 20260502013001 | 42 | 348 | 0.0 | 0.0 | 0.00 | 0.00 | 0.00 | 68 | 1018.4 |
| 20260502012502 | 42 | 347 | 1.0 | 2.0 | 0.00 | 0.00 | 0.00 | 66 | 1018.4 |
| 20260502011502 | 42 | 95 | 1.0 | 3.0 | 0.00 | 0.00 | 0.00 | 65 | 1018.3 |
| 20260502011002 | 42 | 9 | 0.0 | 0.0 | 0.00 | 0.00 | 0.00 | 64 | 1018.3 |
| 20260502010501 | 42 | 324 | 1.0 | 2.0 | 0.00 | 0.00 | 0.00 | 64 | 1018.2 |
| 20260502010002 | 42 | 7 | 0.0 | 0.0 | 0.00 | 0.00 | 0.00 | 63 | 1018.3 |
| 20260502005501 | 43 | 304 | 1.0 | 2.0 | 0.00 | 0.00 | 0.00 | 62 | 1018.0 |
| 20260502005002 | 43 | 341 | 0.0 | 0.0 | 0.00 | 0.00 | 0.00 | 61 | 1018.0 |
| 20260502004002 | 43 | 350 | 0.0 | 0.0 | 0.00 | 0.00 | 0.00 | 61 | 1017.9 |
| 20260502003501 | 43 | 351 | 1.0 | 2.0 | 0.00 | 0.00 | 0.00 | 62 | 1018.0 |
| 20260502003002 | 44 | 125 | 1.0 | 2.0 | 0.00 | 0.00 | 0.00 | 60 | 1017.9 |
| 20260502002502 | 44 | 1 | 0.0 | 0.0 | 0.00 | 0.00 | 0.00 | 62 | 1018.0 |
| 20260502002002 | 44 | 6 | 0.0 | 0.0 | 0.00 | 0.00 | 0.00 | 62 | 1017.8 |
| 20260502001502 | 44 | 1 | 0.0 | 0.0 | 0.00 | 0.00 | 0.00 | 65 | 1017.8 |
| 20260502000502 | 44 | 35 | 1.0 | 2.0 | 0.00 | 0.00 | 0.00 | 64 | 1017.7 |
| 20260502000001 | 44 | 347 | 0.0 | 0.0 | 0.00 | 0.00 | 0.00 | 65 | 1017.7 |
| 20260501235502 | 44 | 347 | 0.0 | 0.0 | 0.00 | 0.00 | 0.00 | 63 | 1017.5 |
| 20260501235002 | 44 | 352 | 0.0 | 0.0 | 0.00 | 0.00 | 0.00 | 63 | 1017.6 |
| 20260501234502 | 44 | 351 | 0.0 | 0.0 | 0.00 | 0.00 | 0.00 | 63 | 1017.7 |
| 20260501233501 | 44 | 18 | 0.0 | 0.0 | 0.00 | 0.00 | 0.00 | 62 | 1017.7 |
| 20260501233002 | 44 | 346 | 1.0 | 2.0 | 0.00 | 0.00 | 0.00 | 62 | 1017.8 |
| 20260501232501 | 44 | 66 | 1.0 | 2.0 | 0.00 | 0.00 | 0.00 | 61 | 1017.8 |
| 20260501232002 | 45 | 348 | 1.0 | 2.0 | 0.00 | 0.00 | 0.00 | 62 | 1017.6 |
| 20260501231502 | 45 | 63 | 0.0 | 0.0 | 0.00 | 0.00 | 0.00 | 63 | 1017.7 |
| 20260501231001 | 45 | 359 | 0.0 | 0.0 | 0.00 | 0.00 | 0.00 | 62 | 1017.8 |
| 20260501230502 | 45 | 355 | 0.0 | 0.0 | 0.00 | 0.00 | 0.00 | 64 | 1017.6 |
| 20260501225502 | 45 | 349 | 0.0 | 0.0 | 0.00 | 0.00 | 0.00 | 61 | 1017.6 |
| 20260501224502 | 45 | 313 | 1.0 | 2.0 | 0.00 | 0.00 | 0.00 | 60 | 1017.6 |
| 20260501224002 | 45 | 336 | 1.0 | 2.0 | 0.00 | 0.00 | 0.00 | 58 | 1017.6 |
| 20260501223501 | 45 | 315 | 1.0 | 2.0 | 0.00 | 0.00 | 0.00 | 59 | 1017.6 |
| 20260501222501 | 45 | 356 | 0.0 | 0.0 | 0.00 | 0.00 | 0.00 | 59 | 1017.7 |
| 20260501221502 | 45 | 356 | 1.0 | 2.0 | 0.00 | 0.00 | 0.00 | 59 | 1017.6 |
| 20260501220502 | 45 | 321 | 1.0 | 2.0 | 0.00 | 0.00 | 0.00 | 61 | 1017.4 |
| 20260501220002 | 46 | 84 | 1.0 | 2.0 | 0.00 | 0.00 | 0.00 | 59 | 1017.6 |
| 20260501215502 | 46 | 335 | 1.0 | 2.0 | 0.00 | 0.00 | 0.00 | 61 | 1017.4 |
| 20260501213502 | 45 | 304 | 1.0 | 2.0 | 0.00 | 0.00 | 0.00 | 59 | 1017.2 |
| 20260501213001 | 46 | 341 | 0.0 | 0.0 | 0.00 | 0.00 | 0.00 | 57 | 1017.4 |
| 20260501212502 | 46 | 258 | 2.0 | 3.0 | 0.00 | 0.00 | 0.00 | 56 | 1017.4 |
| 20260501212002 | 46 | 51 | 1.0 | 2.0 | 0.00 | 0.00 | 0.00 | 56 | 1017.0 |
| 20260501211502 | 46 | 325 | 0.0 | 0.0 | 0.00 | 0.00 | 0.00 | 58 | 1017.1 |
| 20260501205501 | 46 | 344 | 1.0 | 3.0 | 0.00 | 0.00 | 0.00 | 59 | 1016.8 |
| 20260501205002 | 46 | 347 | 0.0 | 0.0 | 0.00 | 0.00 | 0.00 | 59 | 1017.0 |
| 20260501204003 | 46 | 356 | 0.0 | 0.0 | 0.00 | 0.00 | 0.00 | 59 | 1017.0 |
| 20260501203501 | 46 | 345 | 1.0 | 3.0 | 0.00 | 0.00 | 0.00 | 59 | 1017.1 |
| 20260501202502 | 46 | 331 | 0.0 | 0.0 | 0.00 | 0.00 | 0.00 | 58 | 1017.0 |
| 20260501202002 | 46 | 353 | 2.0 | 3.0 | 0.00 | 0.00 | 0.00 | 57 | 1017.0 |
| 20260501201002 | 47 | 357 | 0.0 | 0.0 | 0.00 | 0.00 | 0.00 | 54 | 1017.0 |
| 20260501195001 | 48 | 313 | 1.0 | 2.0 | 0.00 | 0.00 | 0.00 | 56 | 1016.6 |
| 20260501194502 | 48 | 342 | 2.0 | 2.0 | 0.00 | 0.00 | 0.00 | 52 | 1016.7 |
| 20260501194001 | 48 | 1 | 1.0 | 2.0 | 0.00 | 0.00 | 0.00 | 54 | 1016.8 |
| 20260501193502 | 48 | 21 | 0.0 | 0.0 | 0.00 | 0.00 | 0.00 | 53 | 1016.8 |
| 20260501192502 | 49 | 330 | 1.0 | 2.0 | 0.00 | 0.00 | 0.00 | 52 | 1016.7 |
| 20260501191002 | 47 | 333 | 0.0 | 0.0 | 0.00 | 0.00 | 0.00 | 56 | 1016.7 |
| 20260501190501 | 46 | 298 | 1.0 | 2.0 | 0.00 | 0.00 | 0.00 | 55 | 1016.7 |
| 20260501190002 | 47 | 75 | 1.0 | 2.0 | 0.00 | 0.00 | 0.00 | 56 | 1016.6 |
| 20260501184501 | 48 | 270 | 3.0 | 5.0 | 0.00 | 0.00 | 0.00 | 53 | 1016.7 |
| 20260501184002 | 48 | 326 | 1.0 | 2.0 | 0.00 | 0.00 | 0.00 | 54 | 1016.3 |
| 20260501183002 | 47 | 280 | 2.0 | 3.0 | 0.00 | 0.00 | 0.00 | 59 | 1016.4 |
| 20260501182501 | 46 | 358 | 0.0 | 0.0 | 0.00 | 0.00 | 0.00 | 57 | 1016.6 |
| 20260501182002 | 46 | 349 | 0.0 | 0.0 | 0.00 | 0.00 | 0.00 | 56 | 1016.5 |
| 20260501181502 | 47 | 334 | 1.0 | 2.0 | 0.00 | 0.00 | 0.00 | 56 | 1016.3 |
| 20260501181002 | 47 | 38 | 1.0 | 2.0 | 0.00 | 0.00 | 0.00 | 56 | 1016.6 |
| 20260501180502 | 48 | 101 | 4.0 | 5.0 | 0.00 | 0.00 | 0.00 | 56 | 1016.4 |
| 20260501180001 | 48 | 64 | 2.0 | 3.0 | 0.00 | 0.00 | 0.00 | 56 | 1016.5 |
| 20260501175002 | 47 | 2 | 0.0 | 0.0 | 0.00 | 0.00 | 0.00 | 58 | 1016.7 |
| 20260501174002 | 47 | 319 | 2.0 | 3.0 | 0.00 | 0.00 | 0.00 | 57 | 1016.4 |
| 20260501173501 | 47 | 313 | 1.0 | 3.0 | 0.00 | 0.00 | 0.00 | 55 | 1016.5 |
| 20260501173002 | 47 | 36 | 1.0 | 2.0 | 0.00 | 0.00 | 0.00 | 56 | 1016.5 |
| 20260501172502 | 47 | 101 | 1.0 | 2.0 | 0.00 | 0.00 | 0.00 | 58 | 1016.5 |
| 20260501171502 | 47 | 334 | 2.0 | 3.0 | 0.00 | 0.00 | 0.00 | 59 | 1016.4 |